Corsicana, TX

9:35 AM CDT on March 27, 2017 (GMT -0500)
Campbell-Corsicana Municipal

Weather History for KCRS - February, 2014

Change the Weather History Date:

Friday, February 7, 2014

  Actual Average (KACT) Record (KACT)
Temperature  
Mean Temperature 29 °F -  
Max Temperature 33 °F 58 °F 85 °F (2013)
Min Temperature 25 °F 38 °F 14 °F (1933)
Degree Days  
Heating Degree Days 36    
Moisture  
Dew Point 26 °F    
Average Humidity 84    
Maximum Humidity 96    
Minimum Humidity 69    
Precipitation  
Precipitation 0.02 in - - ()
Sea Level Pressure  
Sea Level Pressure 30.31 in    
Wind  
Wind Speed 5 mph (North)    
Max Wind Speed 9 mph    
Max Gust Speed -    
Visibility 6 miles    
Events Rain    
Averages and records for this station are not official NWS values.
T = Trace of Precipitation, MM = Missing Value Source: NWS Daily Summary

Daily Weather History Graph

Daily Weather History Graph

Search for Another Location

Airport or City:

Trip Planner

Search our weather history database for the weather conditions in past years. The results will help you decide how hot, cold, wet, or windy it might be!

Date:

Astronomy

Feb. 07, 2014 Rise Set
Actual Time 7:14 AM CST 6:05 PM CST
Civil Twilight 6:49 AM CST 6:30 PM CST
Nautical Twilight 6:20 AM CST 6:59 PM CST
Astronomical Twilight 5:51 AM CST 7:28 PM CST
Moon 12:20 PM CST (2/7) 1:28 AM CST (2/7)
Length of Visible Light 11h 40m
Length of Day
10h 50m
First Quarter, 59% of the Moon is Illuminated
Feb 7
First Quarter
Feb 14
Full
Feb 22
Last Quarter
Mar 1
New
Mar 8
First Quarter

Hourly Weather History & Observations

Time (CST) Temp. Windchill Dew Point Humidity Pressure Visibility Wind Dir Wind Speed Gust Speed Precip Events Conditions
12:53 AM 25.0 °F 15.5 °F 19.0 °F 78% 30.42 in 10.0 mi North 9.2 mph - N/A   Overcast
1:53 AM 25.0 °F 16.3 °F 18.0 °F 75% 30.40 in 10.0 mi North 8.1 mph - N/A   Overcast
2:53 AM 26.1 °F 18.4 °F 19.0 °F 75% 30.38 in 10.0 mi North 6.9 mph - N/A   Overcast
3:53 AM 26.1 °F 18.4 °F 19.0 °F 75% 30.38 in 10.0 mi North 6.9 mph - N/A   Overcast
4:53 AM 26.1 °F 18.4 °F 19.9 °F 78% 30.38 in 10.0 mi North 6.9 mph - N/A   Overcast
5:53 AM 26.1 °F 16.8 °F 19.0 °F 75% 30.38 in 10.0 mi North 9.2 mph - N/A   Overcast
6:53 AM 26.1 °F 17.6 °F 19.9 °F 78% 30.37 in 9.0 mi NNE 8.1 mph - N/A   Overcast
7:53 AM 27.0 °F 19.5 °F 19.9 °F 75% 30.35 in 9.0 mi NE 6.9 mph - N/A   Overcast
8:53 AM 28.0 °F 19.3 °F 21.0 °F 75% 30.37 in 10.0 mi North 9.2 mph - N/A   Overcast
9:53 AM 28.9 °F 23.9 °F 21.9 °F 75% 30.41 in 10.0 mi NNW 4.6 mph - N/A   Overcast
10:53 AM 30.9 °F 27.5 °F 23.0 °F 72% 30.40 in 10.0 mi NNW 3.5 mph - N/A   Overcast
11:53 AM 32.0 °F 28.7 °F 23.0 °F 69% 30.38 in 10.0 mi East 3.5 mph - N/A   Overcast
12:53 PM 32.0 °F - 23.0 °F 69% 30.35 in 10.0 mi Calm Calm - N/A   Overcast
1:18 PM 33.1 °F 27.7 °F 24.1 °F 70% 30.29 in 10.0 mi ENE 5.8 mph - N/A   Overcast
1:26 PM 33.1 °F 27.7 °F 24.1 °F 70% 30.30 in 10.0 mi NE 5.8 mph - N/A   Overcast
1:53 PM 32.0 °F 26.4 °F 25.0 °F 75% 30.29 in 6.0 mi East 5.8 mph - 0.00 in   Haze
2:22 PM 32.0 °F - 25.0 °F 75% 30.28 in 8.0 mi Calm Calm - N/A   Overcast
2:53 PM 32.0 °F - 26.1 °F 79% 30.29 in 6.0 mi Calm Calm - 0.00 in   Overcast
3:45 PM 30.9 °F 27.5 °F 28.0 °F 89% 30.27 in 2.0 mi NNW 3.5 mph - 0.00 in Rain Light Freezing Rain
3:48 PM 30.2 °F 26.7 °F 28.4 °F 93% 30.27 in 1.8 mi NNW 3.5 mph - 0.01 in Rain Light Freezing Rain
3:53 PM 30.9 °F - 28.9 °F 92% 30.28 in 2.0 mi Calm Calm - 0.01 in Rain Light Freezing Rain
4:06 PM 30.9 °F 27.5 °F 28.9 °F 92% 30.27 in 2.5 mi NW 3.5 mph - 0.00 in Rain Light Freezing Rain
4:41 PM 30.9 °F 25.2 °F 28.9 °F 92% 30.27 in 1.8 mi North 5.8 mph - 0.00 in Rain Light Freezing Rain
4:48 PM 30.2 °F 24.3 °F 28.4 °F 93% 30.28 in 2.0 mi North 5.8 mph - 0.01 in Rain Light Freezing Rain
4:53 PM 30.9 °F 26.2 °F 28.9 °F 92% 30.29 in 1.8 mi North 4.6 mph - 0.01 in Rain Light Freezing Rain
5:04 PM 30.9 °F 26.2 °F 28.9 °F 92% 30.27 in 2.0 mi Variable 4.6 mph - 0.00 in Rain Light Freezing Rain
5:29 PM 30.9 °F - 28.9 °F 92% 30.27 in 3.0 mi Calm Calm - 0.00 in   Overcast
5:53 PM 32.0 °F 27.5 °F 28.9 °F 88% 30.27 in 3.0 mi East 4.6 mph - 0.00 in   Overcast
6:53 PM 32.0 °F - 30.0 °F 92% 30.28 in 4.0 mi Calm Calm - 0.00 in   Overcast
7:53 PM 32.0 °F - 30.9 °F 96% 30.28 in 4.0 mi Calm Calm - N/A   Overcast
8:53 PM 33.1 °F - 30.9 °F 92% 30.28 in 5.0 mi Calm Calm - N/A   Overcast
9:53 PM 33.1 °F 30.0 °F 32.0 °F 96% 30.27 in 4.0 mi South 3.5 mph - N/A   Overcast
10:53 PM 33.1 °F 30.0 °F 32.0 °F 96% 30.26 in 2.5 mi South 3.5 mph - N/A   Overcast
11:01 PM 33.1 °F 30.0 °F 32.0 °F 96% 30.26 in 3.0 mi SW 3.5 mph - N/A   Overcast
11:17 PM 33.1 °F 30.0 °F 30.9 °F 92% 30.27 in 3.0 mi West 3.5 mph - N/A   Overcast
11:48 PM 33.8 °F - 32.0 °F 93% 30.26 in 2.5 mi Calm Calm - N/A   Overcast
11:53 PM 33.1 °F - 32.0 °F 96% 30.27 in 2.5 mi Calm Calm - N/A   Overcast